Regional Weather Roundup
Issued by NWS Albany, NY

Home | Current Version | Previous Version | Text Only | Print | Product List | Glossary On
Versions: 1 2 3 4 5 6 7 8 9 10 11 12 13 14 15 16 17 18 19 20 21 22 23 24 25 26 27 28 29 30 31 32 33 34 35 36 37 38 39 40 41 42 43 44 45 46 47 48 49 50
000
ASUS41 KALY 211410
RWRALY

NEW YORK STATE HOURLY WEATHER ROUNDUP
NATIONAL WEATHER SERVICE ALBANY NY
900 AM EST SAT JAN 21 2017

NOTE: "FAIR" INDICATES FEW OR NO CLOUDS BELOW 12,000 FEET WITH NO
SIGNIFICANT WEATHER AND/OR NO OBSTRUCTIONS TO VISIBILITY.

NYZ032-033-038>043-046>054-057>066-NYZ062>081-082-084-211500-
EAST


CITY           SKY/WX    TMP DP  RH WIND       PRES   REMARKS
ALBANY         CLOUDY    40  36  86 S7        29.86R
GLENS FALLS    FOG       38  35  89 SW7       29.83R VSB 1   WCI  33
POUGHKEEPSIE   CLOUDY    42  39  89 CALM      29.85S
NEWBURGH       PTSUNNY   39  39 100 W8        29.86S FOG     WCI  34
MONTGOMERY     CLOUDY    40  38  93 SW7       29.85S FOG
WHITE PLAINS   CLOUDY    42  39  89 W5        29.86R FOG
ISLIP          FOG       43  43 100 SW5       29.88F VSB 1
NEW YORK CITY  CLOUDY    46  42  86 SW5       29.88S
CENTRAL PARK   PTSUNNY   43  41  93 CALM      29.90S
$$

NYZ005>009-017-018-044>046-055-056-211500-
CENTRAL


CITY           SKY/WX    TMP DP  RH WIND       PRES   REMARKS
FULTON         CLOUDY    44  42  93 SW5       29.82R FOG
SYRACUSE       CLOUDY    40  39  97 CALM      29.82S
ROME           CLOUDY    38  37  97 E5        29.83F WCI  34
ELMIRA         FOG       39  37  92 NE3       29.84S VSB 1
BINGHAMTON     FOG       39  39 100 W8        29.82S VSB 1/16WCI  33
MONTICELLO     CLOUDY    37  37 100 W5        29.86S VSB<1/4 WCI  34
$$

NYZ026>034-041>043-087-211500-
NORTH


CITY           SKY/WX    TMP DP  RH WIND       PRES   REMARKS
WATERTOWN      CLOUDY    41  41 100 SW7       29.80S
FORT DRUM      NOT AVBL
OGDENSBURG     FOG       37  37  97 NW3       29.78S VSB 1/4
MASSENA        CLOUDY    34  33  96 CALM      29.80R FOG
SARANAC LAKE   FOG       34  33  96 SW3       29.74R VSB 3/4
PLATTSBURGH    CLOUDY    34  33  96 CALM      29.79S FOG
$$

NYZ001>004-010>016-019>021-085-211500-
WEST


CITY           SKY/WX    TMP DP  RH WIND       PRES   REMARKS
NIAGARA FALLS  FOG       43  40  89 E5        29.77F VSB<1/4
BUFFALO        FOG       44  42  93 NE5       29.78S VSB 1
DUNKIRK        PTSUNNY   44  44 100 VRB3      29.78R FOG
JAMESTOWN      CLOUDY    45  43  93 S8        29.79S VSB<1/4
WELLSVILLE     PTSUNNY   48  45  89 SW9       29.82S FOG
ROCHESTER      DRZL/FOG  44  44 100 CALM      29.81S VSB 1/16
PENN YAN       PTSUNNY   44  40  85 SW13      29.81S
$$

             KEY
       WCI = WIND CHILL INDEX
       VSB = VISIBILITY
       HX  = HEAT INDEX
$$



USA.gov is the U.S. government's official web portal to all federal, state and local government web resources and services.